TimeEDT,TemperatureF,Dew PointF,Humidity,Sea Level PressureIn,VisibilityMPH,Wind Direction,Wind SpeedMPH,Gust SpeedMPH,PrecipitationIn,Events,Conditions,WindDirDegrees,DateUTC
12:56 AM,63.0,59.0,87,30.01,10.0,Calm,Calm,-,N/A,,Clear,0,2012-10-06 04:56:00
1:56 AM,66.0,60.1,81,30.00,10.0,South,5.8,-,N/A,,Clear,190,2012-10-06 05:56:00
2:56 AM,66.0,61.0,84,29.98,10.0,South,5.8,-,N/A,,Clear,190,2012-10-06 06:56:00
3:56 AM,64.9,60.1,84,29.96,10.0,South,5.8,-,N/A,,Clear,190,2012-10-06 07:56:00
4:56 AM,64.9,61.0,87,29.96,10.0,South,3.5,-,N/A,,Clear,190,2012-10-06 08:56:00
5:56 AM,64.9,61.0,87,29.95,10.0,SSW,6.9,-,N/A,,Clear,200,2012-10-06 09:56:00
6:56 AM,62.1,60.1,93,29.96,6.0,SW,5.8,-,N/A,,Scattered Clouds,230,2012-10-06 10:56:00
7:56 AM,64.9,62.1,90,29.96,5.0,SW,5.8,-,N/A,,Partly Cloudy,230,2012-10-06 11:56:00
8:56 AM,68.0,63.0,84,29.96,10.0,SW,9.2,-,N/A,,Clear,220,2012-10-06 12:56:00
9:56 AM,73.0,61.0,66,29.96,10.0,WSW,12.7,-,N/A,,Clear,240,2012-10-06 13:56:00
10:56 AM,75.9,59.0,56,29.94,10.0,WSW,11.5,-,N/A,,Clear,240,2012-10-06 14:56:00
11:56 AM,80.1,60.1,50,29.92,10.0,SSW,12.7,-,N/A,,Partly Cloudy,210,2012-10-06 15:56:00
12:56 PM,82.0,59.0,45,29.89,10.0,WSW,13.8,-,N/A,,Scattered Clouds,240,2012-10-06 16:56:00
1:56 PM,82.0,59.0,45,29.86,10.0,SW,13.8,21.9,N/A,,Scattered Clouds,220,2012-10-06 17:56:00
2:56 PM,82.9,60.1,46,29.86,10.0,SW,13.8,20.7,N/A,,Scattered Clouds,220,2012-10-06 18:56:00
3:56 PM,82.9,60.1,46,29.86,10.0,West,9.2,16.1,N/A,,Scattered Clouds,260,2012-10-06 19:56:00
4:56 PM,82.0,59.0,45,29.86,10.0,West,9.2,-,N/A,,Scattered Clouds,260,2012-10-06 20:56:00
5:56 PM,80.1,60.1,50,29.87,10.0,West,6.9,-,N/A,,Scattered Clouds,270,2012-10-06 21:56:00
6:56 PM,78.1,61.0,56,29.89,10.0,WNW,8.1,-,N/A,,Mostly Cloudy,300,2012-10-06 22:56:00
7:56 PM,75.9,61.0,60,29.91,10.0,WNW,8.1,-,N/A,,Overcast,300,2012-10-06 23:56:00
8:56 PM,71.1,61.0,70,29.95,10.0,North,13.8,-,N/A,,Overcast,360,2012-10-07 00:56:00
9:56 PM,70.0,59.0,68,29.97,10.0,North,11.5,-,N/A,,Overcast,10,2012-10-07 01:56:00
10:56 PM,69.1,55.0,61,29.99,10.0,North,11.5,19.6,N/A,,Overcast,10,2012-10-07 02:56:00
11:56 PM,66.9,52.0,59,29.99,10.0,NNE,15.0,20.7,N/A,,Scattered Clouds,20,2012-10-07 03:56:00